Lid_Strength_Index
5 5 4 4 3 3 3 3 2 2 2 2 2 2 1 0 -0 1 3 2 2 0 1 4 3 4 5 6 5 5 10 12 11 10 9 7 8 6 6 7 6 6 6 4 3
5 5 5 4 4 3 3 2 2 2 2 2 2 2 1 0 2 3 0 0 1 -0 3 6 6 5 8 7 6 8 11 11 8 8 9 7 7 7 7 8 7 7 6 5 3
5 5 4 4 4 3 3 3 2 2 2 2 2 1 1 1 4 4 -1 -1 -0 -0 3 4 5 6 8 8 8 7 11 8 8 7 7 7 7 6 7 8 7 8 6 5 4
5 5 5 4 4 3 3 2 2 2 2 1 2 1 1 1 10 3 -2 -1 -1 0 3 5 6 8 9 10 8 10 8 8 8 7 8 9 7 7 8 8 6 6 6 6 5
6 5 5 4 4 3 3 2 2 1 1 1 1 2 2 5 5 1 -1 -0 -0 2 4 6 8 8 11 10 9 10 9 8 8 9 9 8 9 9 8 7 6 6 6 8 7
6 5 5 4 4 3 3 2 2 1 1 1 1 2 3 7 3 2 2 1 2 3 4 5 7 7 9 11 11 10 10 10 9 9 9 10 10 10 9 7 7 6 7 7 7
6 5 5 4 4 3 3 2 1 0 -0 1 1 2 4 6 3 3 3 4 3 3 5 4 5 7 8 11 9 10 13 12 11 10 11 10 12 11 9 8 8 8 7 7 6
6 5 5 4 4 3 3 2 1 0 0 0 1 2 6 3 3 4 3 3 2 2 3 3 3 5 7 8 9 12 12 15 10 10 10 11 15 11 9 9 9 9 9 8 7
6 5 5 4 4 3 3 2 0 -0 0 0 2 3 7 4 5 4 3 5 4 3 2 3 3 6 7 10 13 12 16 14 13 9 10 11 13 10 9 9 10 9 9 9 8
5 5 5 5 4 3 3 2 2 1 0 1 2 5 5 7 5 4 3 3 4 4 5 5 6 9 10 11 15 14 15 13 13 12 11 13 13 10 9 10 10 10 9 9 8
5 5 5 5 4 3 3 3 6 6 5 7 6 6 6 4 3 5 3 4 4 6 9 7 10 12 10 10 10 11 12 14 12 10 12 13 14 13 11 11 12 11 11 10 9
5 5 5 4 4 3 3 7 8 8 9 6 6 5 4 4 7 5 3 7 7 10 8 10 12 9 8 8 10 11 13 13 11 10 12 13 14 12 10 11 10 10 11 11 10
5 5 5 5 5 4 7 8 5 5 9 8 5 5 6 4 6 7 5 6 9 10 10 12 10 8 9 10 11 12 13 13 13 11 10 13 14 13 10 10 9 9 10 10 10
5 5 5 5 6 7 8 6 4 4 11 11 8 7 6 5 8 5 4 6 8 10 9 10 8 9 10 11 10 14 10 10 12 13 17 13 20 13 11 11 10 10 11 11 10
5 5 6 6 8 8 8 6 4 6 19 10 9 5 5 8 7 8 5 6 10 10 10 12 11 11 11 10 9 11 10 11 12 14 15 15 18 14 11 12 11 11 10 10 10
5 5 6 8 7 8 6 5 5 13 20 13 8 9 9 8 8 7 7 6 7 10 10 11 9 10 10 9 9 9 11 11 12 14 22 15 16 15 13 11 11 10 10 10 10
5 7 8 8 11 7 6 6 13 17 13 15 13 11 11 11 10 9 10 11 13 16 15 12 11 10 9 11 9 10 13 20 21 20 21 15 17 14 11 10 9 10 10 10 10
5 7 8 7 7 6 6 10 19 18 17 12 12 12 14 13 11 11 12 14 12 13 15 17 18 12 10 11 12 12 13 20 25 23 20 16 19 14 10 9 9 9 9 9 10
5 6 7 7 6 6 8 15 17 15 14 14 13 15 15 13 13 12 13 14 14 13 16 16 16 11 11 10 10 13 16 11 19 19 21 16 14 10 9 9 9 9 10 11 10
8 8 8 7 6 6 12 14 16 12 13 13 16 16 19 17 15 14 14 13 13 13 11 13 18 12 11 10 10 12 10 17 17 25 25 18 16 15 12 11 10 11 12 11 10
8 10 7 6 6 9 14 16 14 12 13 14 15 17 16 18 16 16 15 14 13 13 12 14 15 15 12 13 14 14 15 14 13 16 21 22 18 10 11 12 13 12 12 11 10
9 12 7 6 12 12 15 14 13 14 13 13 13 14 16 16 18 16 16 14 12 13 17 14 15 19 16 12 10 11 13 13 18 20 17 18 16 10 12 13 13 14 12 10 11
10 10 7 7 14 15 15 15 14 15 15 15 15 14 13 19 22 17 16 12 12 14 16 15 19 24 19 16 12 15 14 13 16 16 20 22 18 9 11 14 14 14 12 12 12
9 13 10 9 10 13 16 16 16 13 14 14 14 14 15 18 15 20 16 13 12 13 12 13 18 22 22 18 16 18 16 15 19 24 23 20 19 16 15 15 14 13 12 13 13
10 14 14 14 14 13 13 14 16 17 14 13 15 15 15 21 19 21 16 15 13 12 13 15 23 19 17 16 17 17 17 16 18 19 22 20 21 18 17 15 15 12 12 13 13
10 11 11 14 13 13 13 15 15 15 15 15 16 14 14 18 17 21 18 17 16 15 15 14 22 17 21 16 16 18 16 16 16 16 17 17 18 14 13 12 14 14 13 13 13
8 7 9 12 12 14 14 14 14 13 13 12 13 14 14 13 12 12 11 12 13 16 18 18 20 24 23 16 18 25 18 16 16 16 19 20 17 14 16 14 17 15 14 13 14